Home   Weather   Vancouver   Past weeks
Flag for USA

Past Weather in Vancouver, Washington, USA — Yesterday and Last 2 Weeks

Now
53 °F

Light rain. Mostly cloudy.


Feels Like: 51 °F
Forecast: 56 / 49 °F
Wind: 6 mph from North

Location: Vancouver - Pearson Airpark

Current Time: Oct 19, 2019 at 2:42:26 am

Latest Report: Oct 19, 2019 at 2:12 am


Visibility: 10 mi

Pressure: 29.68 "Hg

Humidity: 83%

Dew Point: 48 °F

Location of VancouverLocation

Past Weather in Vancouver — Graph

°F

Vancouver Temperature Yesterday

Maximum temperature yesterday: 58 °F (at 1:53 pm)
Minimum temperature yesterday: 50 °F (at 6:53 am)
Average temperature yesterday: 54 °F

High & Low Weather Summary for the Past Weeks

 TemperatureHumidityPressure
High70 °F (Oct 6, 3:53 pm)97% (Oct 5, 7:53 am)30.42 "Hg (Oct 5, 7:53 am)
Low33 °F (Oct 9, 6:53 am)21% (Oct 11, 2:53 pm)29.71 "Hg (Oct 16, 5:53 pm)
Average52 °F72%30.08 "Hg
* Reported Oct 4 12:31 am — Oct 19 12:53 am, Vancouver. Weather by CustomWeather, © 2019

Note: Actual official high and low records may vary slightly from our data, if they occured in-between our weather recording intervals... More about our weather records

Advertising

Vancouver Weather History for the Previous 24 Hours

Scroll right to see more
 ConditionsComfort  
Time TempWeatherWind HumidityBarometerVisibility
12:53 am
Sat, Oct 19
54 °FOvercast.10 mph80%29.75 "Hg10 mi
12:00 am54 °FMostly cloudy.9 mph83%29.79 "Hg10 mi
11:01 pm
Fri, Oct 18
54 °FLight rain. Mostly cloudy.7 mph83%29.81 "Hg10 mi
10:43 pm54 °FLight rain. Mostly cloudy.7 mph83%29.82 "Hg10 mi
10:13 pm54 °FLight rain. Mostly cloudy.5 mph83%29.85 "Hg10 mi
9:53 pm55 °FMostly cloudy.7 mph77%29.85 "Hg10 mi
9:31 pm54 °FMostly cloudy.7 mph83%29.86 "Hg10 mi
8:53 pm54 °FOvercast.7 mph83%29.88 "Hg10 mi
7:53 pm54 °FMostly cloudy.7 mph83%29.90 "Hg9 mi
6:53 pm54 °FMostly cloudy.5 mph83%29.92 "Hg10 mi
5:53 pm56 °FCloudy.8 mph75%29.93 "Hg10 mi
4:53 pm56 °FMostly cloudy.7 mph75%29.94 "Hg10 mi
3:53 pm57 °FLight rain. Mostly cloudy.8 mph74%29.95 "Hg10 mi
2:53 pm57 °FMore clouds than sun.8 mph72%29.96 "Hg10 mi
1:53 pm58 °FMore clouds than sun.10 mph65%29.96 "Hg10 mi
12:53 pm57 °FLight rain. Mostly cloudy.7 mph69%29.98 "Hg10 mi
11:53 am57 °FMostly cloudy.7 mph72%29.98 "Hg10 mi
10:53 am55 °FPartly sunny.5 mph74%29.99 "Hg10 mi
9:53 am54 °FBroken clouds.7 mph77%30.00 "Hg10 mi
8:53 am52 °FPartly sunny.5 mph83%29.99 "Hg10 mi
7:53 am50 °FLight rain. Cloudy.No wind89%29.98 "Hg10 mi
6:53 am50 °FOvercast.3 mph86%29.98 "Hg10 mi
5:53 am51 °FMostly cloudy.No wind80%29.98 "Hg10 mi
4:53 am51 °FPassing clouds.No wind80%29.97 "Hg10 mi
3:53 am52 °FClear.No wind77%29.95 "Hg10 mi
2:53 am52 °FPassing clouds.No wind80%29.94 "Hg10 mi
Weather by CustomWeather, © 2019

See weather overview